Calgary Springbank,

9:00 AM MST on December 14, 2017 (GMT -0700)
Calgary Springbank

Weather History for CYBW - January, 2013

Change the Weather History Date:

Friday, January 11, 2013

  Actual Average Record
Temperature  
Mean Temperature -6 °F -  
Max Temperature 2 °F 26 °F 44 °F (2003)
Min Temperature -13 °F 7 °F -38 °F (1998)
Degree Days  
Heating Degree Days 70    
Moisture  
Dew Point -8 °F    
Average Humidity 80    
Maximum Humidity 85    
Minimum Humidity 68    
Precipitation  
Precipitation 0.16 in - - ()
Sea Level Pressure  
Sea Level Pressure 30.33 in    
Wind  
Wind Speed 3 mph ()    
Max Wind Speed 8 mph    
Max Gust Speed -    
Visibility 14.0 miles    
Events Fog    
Averages and records for this station are not official NWS values.
T = Trace of Precipitation, MM = Missing Value Source: Averaged Metar Reports

Daily Weather History Graph

Daily Weather History Graph

Search for Another Location

Airport or City:

Trip Planner

Search our weather history database for the weather conditions in past years. The results will help you decide how hot, cold, wet, or windy it might be!

Date:

Astronomy

Jan. 11, 2013 Rise Set
Actual Time 8:37 AM MST 4:54 PM MST
Civil Twilight 7:58 AM MST 5:32 PM MST
Nautical Twilight 7:17 AM MST 6:14 PM MST
Astronomical Twilight 6:37 AM MST 6:54 PM MST
Moon 8:08 AM MST (1/11) 5:24 PM MST (1/11)
Length of Visible Light 9h 34m
Length of Day
8h 17m
Waning Crescent, 0% of the Moon is Illuminated
Jan 11
Waning Crescent
Jan 11
New
Jan 18
First Quarter
Jan 26
Full
Feb 3
Last Quarter

Hourly Weather History & Observations

Time (MST) Temp. Windchill Dew Point Humidity Pressure Visibility Wind Dir Wind Speed Gust Speed Precip Events Conditions
5:00 AM -1 °F - -5 °F 76% 30.33 in 15 mi NW 3.5 mph - -   Clear
5:00 AM -0.4 °F -8.3 °F -4.0 °F 85% 30.32 in 15.0 mi WNW 3.5 mph - N/A   Scattered Clouds
6:00 AM -2.2 °F -12.5 °F -5.8 °F 85% 30.33 in 15.0 mi WNW 4.6 mph - N/A   Mostly Cloudy
7:00 AM -2.2 °F -10.4 °F -5.8 °F 85% 30.35 in 15.0 mi NNW 3.5 mph - N/A   Scattered Clouds
9:00 AM -4.0 °F - -7.6 °F 85% 30.37 in 15.0 mi Calm Calm - N/A   Mostly Cloudy
10:00 AM -9.4 °F -18.6 °F -14.8 °F 77% 30.39 in 5.0 mi NW 3.5 mph - N/A   Mostly Cloudy
10:48 AM -9.4 °F -22.7 °F -14.8 °F 77% 30.39 in 1.0 mi NW 5.8 mph - N/A   Scattered Clouds
11:00 AM -7 °F - -12 °F 68% 30.39 in 3 mi NW 6.9 mph - -   Scattered Clouds
11:00 AM -7.6 °F -22.1 °F -11.2 °F 84% 30.39 in 3.0 mi NW 6.9 mph - N/A   Scattered Clouds
11:11 AM -5.8 °F -16.7 °F -11.2 °F 77% 30.38 in 20.0 mi NW 4.6 mph - N/A   Scattered Clouds
12:00 PM -4.0 °F - -9.4 °F 78% 30.36 in 20.0 mi Calm Calm - N/A   Scattered Clouds
1:00 PM -0.4 °F - -4.0 °F 85% 30.33 in 30.0 mi Calm Calm - N/A   Scattered Clouds
2:00 PM 1.4 °F - -4.0 °F 78% 30.30 in 30.0 mi Calm Calm - N/A   Partly Cloudy
3:00 PM -0.4 °F - -5.8 °F 78% 30.30 in 20.0 mi Calm Calm - N/A   Clear
4:00 PM -0.4 °F - -4.0 °F 85% 30.29 in 20.0 mi Calm Calm - N/A   Clear
5:00 PM -0 °F - -5 °F 71% 30.28 in 19 mi Calm Calm - - Fog Patches of Fog
5:00 PM -0.4 °F - -4.0 °F 85% 30.28 in 20.0 mi Calm Calm - N/A Fog Shallow Fog
6:00 PM -4.0 °F -12.4 °F -9.4 °F 78% 30.29 in 15.0 mi WNW 3.5 mph - N/A   Clear
7:00 PM -4.0 °F -14.6 °F -7.6 °F 85% 30.28 in 15.0 mi NW 4.6 mph - N/A   Clear
8:00 PM -7.6 °F -23.4 °F -13.0 °F 77% 30.28 in 15.0 mi WNW 8.1 mph - N/A   Clear
9:00 PM -11.2 °F -27.8 °F -16.6 °F 77% 30.27 in 15.0 mi NW 8.1 mph - N/A   Clear